Location: Newark
(47.5500°N, 8.6167°E)
Time: 00:30:33
(UTC+00:00)

Envisat - Pass Details

Date: 25 January 2020
Orbit: 764 x 766 km, 98.1° (Epoch: 24 February)

Event Time Altitude Azimuth Distance (km) Brightness Sun altitude
Rises 04:31:56 0° 34° (NNE) 3,243 6.7 -25.0°
Reaches altitude 10° 04:36:25 10° 71° (ENE) 2,308 6.4 -24.2°
Maximum altitude 04:37:39 11° 85° (E) 2,250 6.5 -24.0°
Drops below altitude 10° 04:38:52 10° 99° (E) 2,303 6.6 -23.8°
Sets 04:43:18 0° 136° (SE) 3,221 6.9 -23.0°
